Location: Boulin
(43.2500°N, 0.1333°E)
Time: 00:49:27
(UTC+00:00)

SL-24 R/B - RUBIN 2 - Pass Details

Date: 11 December 2025
Orbit: 601 x 986 km, 64.6° (Epoch: 19 January)

Event Time Altitude Azimuth Distance (km) Brightness Sun altitude
Rises 18:24:28 0° 194° (SSW) 3,403 7.7 -21.1°
Reaches altitude 10° 18:27:09 10° 187° (S) 2,408 6.8 -21.6°
Enters shadow 18:32:02 42° 127° (SE) 1,077 4.4 -22.5°
